Regional Weather Roundup
Issued by NWS

Home | Current Version | Previous Version | Graphics & Text | Print | Product List | Glossary Off
Versions: 1 2 3 4 5 6 7 8 9 10 11 12 13 14 15 16 17 18 19 20 21 22 23 24 25 26 27

000
ASUS43 KDMX 191907
RWRIA

WEATHER ROUNDUP FOR IOWA
NATIONAL WEATHER SERVICE DES MOINES IA
200 PM CDT SAT APR 19 2014

NOTE: "FAIR" INDICATES FEW OR NO CLOUDS BELOW 12,000 FEET WITH NO
SIGNIFICANT WEATHER AND/OR OBSTRUCTIONS TO VISIBILITY.

* - THESE STATIONS ARE NOT NWS STATIONS...THUS NOT UNDER NWS
QUALITY CONTROL.  THEY ALSO DO NOT REPORT WEATHER SUCH
AS PRECIPITATION OR FOG.

IAZ001>003-012>014-020>022-031>034-043>046-192000-
   NORTHWEST IOWA

CITY           SKY/WX    TMP DP  RH WIND       PRES   REMARKS
CARROLL *      MOSUNNY   75  43  31 S26       30.02F
CHEROKEE *     MOSUNNY   75  46  35 SW24      29.99F
DENISON *      SUNNY     75  43  31 S18G33    30.00F
LE MARS *      MOSUNNY   73  48  40 SW17      29.99S
ORANGE CITY *  PTSUNNY   72  45  37 SW14G20   29.99F
SHELDON *      MOSUNNY   72  46  40 S12G26    29.98F
SIOUX CITY     PTSUNNY   77  47  34 SW18G28   29.98F
SPENCER        PTSUNNY   74  46  36 SW22G30   29.99F
STORM LAKE *   MOSUNNY   75  43  31 SW23G32   30.01S
$$

IAZ055>058-069>071-079>083-090>094-192000-
   SOUTHWEST IOWA

CITY           SKY/WX    TMP DP  RH WIND       PRES   REMARKS
ATLANTIC *     SUNNY     75  43  31 S21G32    30.03F
AUDUBON *      SUNNY     77  32  19 S20G31    30.05F
CLARINDA *     SUNNY     77  43  29 S20G28    30.07S
COUNCIL BLFS * PTSUNNY   75  46  35 S16G23    30.01F
CRESTON *      SUNNY     73  45  35 S21G29    30.09F
HARLAN  *      SUNNY     75  45  33 S24G32    30.05F
LAMONI         PTSUNNY   74  43  32 S15G25    30.12F
RED OAK *      SUNNY     77  45  31 S22G30    30.04F
SHENANDOAH *   SUNNY     77  43  29 S22G31    30.04S
$$

IAZ047>049-059>061-072>074-084-192000-
   CENTRAL IOWA

CITY           SKY/WX    TMP DP  RH WIND       PRES   REMARKS
AMES           PTSUNNY   74  44  34 S24G30    30.07F
ANKENY *       SUNNY     73  43  33 SW16G24   30.08F
CHARITON *     SUNNY     73  45  35 S18G28    30.12F
DES MOINES     CLOUDY    75  42  30 SW16G28   30.10F
GRINNELL*      PTSUNNY   72  41  33 S17G26    30.14S
KNOXVILLE *    SUNNY     73  43  33 S17G29    30.12R
MARSHALLTOWN   PTSUNNY   70  43  37 S20       30.10F
NEWTON *       SUNNY     72  43  35 S16G28    30.11F
PELLA *        PTSUNNY   75  45  33 S16       30.14S
PERRY *          N/A     77  36  22 S26G32    30.05F
$$

IAZ004>006-015-016-023>025-035-036-192000-
   NORTH CENTRAL IOWA

CITY           SKY/WX    TMP DP  RH WIND       PRES   REMARKS
ALGONA *       MOSUNNY   75  43  31 S30G39    30.00S
CLARION *      SUNNY     75  43  31 S29G47    30.03S
ESTHERVILLE    MOSUNNY   75  47  36 SW25G36   29.98S
FORT DODGE *   MOSUNNY   75  46  35 S23G36    30.03F
MASON CITY     MOSUNNY   71  43  36 S24G32    30.06F
FOREST CITY *  SUNNY     72  41  33 S24G30    30.04S
IOWA FALLS *     N/A     72  43  35 S23       30.08F
$$

IAZ007>011-017>019-026>030-037>042-050>054-066-192000-
   NORTHEAST IOWA

CITY           SKY/WX    TMP DP  RH WIND       PRES   REMARKS
CEDAR RAPIDS   MOSUNNY   70  38  31 S18G29    30.16F
CHARLES CITY * SUNNY     66  41  39 SE17G26   30.10S
CLINTON *      MOSUNNY   68  34  28 SE16G22   30.26F
DECORAH *      SUNNY     64  37  36 S17G30    30.12F
DUBUQUE        MOSUNNY   65  35  33 S18G24    30.22F
MONTICELLO *   SUNNY     70  36  28 SE21      30.20F
OELWEIN *      SUNNY    N/A N/A N/A S24       30.14F
WATERLOO       MOSUNNY   70  38  31 S20G28    30.11F
$$

IAZ064-065-067-068-078-192000-
   EAST CENTRAL IOWA

CITY           SKY/WX    TMP DP  RH WIND       PRES   REMARKS
DAVENPORT      SUNNY     71  33  24 S16G29    30.25S
IOWA CITY      MOSUNNY   71  42  35 S20       30.20F
MT. PLEASANT * SUNNY     73  37  27 S16G24    30.20F
MUSCATINE *    SUNNY     72  39  30 S15       30.21S
QUAD CITIES    SUNNY     72  33  24 S12G20    30.22F
$$

IAZ062-063-075>077-085>089-095>099-192000-
   SOUTHEAST IOWA

CITY           SKY/WX    TMP DP  RH WIND       PRES   REMARKS
BURLINGTON     SUNNY     72  42  34 S15       30.21F
FAIRFIELD *    SUNNY     73  41  31 S20G28    30.17F
FORT MADISON * SUNNY     72  43  35 S13       30.21F
KEOKUK *       SUNNY     73  43  33 S10G20    30.20F
OSKALOOSA *      N/A     73  43  33 S16G26    30.15F
CENTERVILLE *  SUNNY     75  45  33 S17       30.16S
OTTUMWA        MOSUNNY   73  43  33 S20G25    30.15F
WASHINGTON *   SUNNY     73  41  31 S16       30.18F
$$

ABBREVIATIONS USED IN REMARKS
   TC - TEMPERATURES IN CELSIUS
  WCI - WIND CHILL INDEX
   HX - HEAT INDEX
  VSB - VISIBILITY
$$




USA.gov is the U.S. government's official web portal to all federal, state and local government web resources and services.